星链-5418 (STARLINK-5418 )

导读

STARLINK-5418是美国SpaceX星链星座中的一颗低轨互联网通信卫星,于2022年12月28日发射,属于星链网络大规模部署的组成部分。它运行在近地轨道,整星质量约297kg,通过星链星座组网,为全球尤其是偏远地区提供高速低延迟的宽带互联网服务。作为星链星座中一颗标准的量产卫星,它沿用星链成熟设计,助力SpaceX实现全球互联的卫星互联网布局,目前在轨正常运行。

基本信息
目录编号:
54852
目录名称:
STARLINK-5418
国际标识:
2022-177AJ
轨道中心:
EARTH
卫星名称:
星链-5418
卫星全名:
星链-5418 (STARLINK-5418 )
卫星状态:
在轨 (已飞行1354 天)
发射日期:
2022-12-28 UTC
国别 :
美国 (US)
星等 :
--
该卫星已列入 空间交会检测服务 Space Conjunction Data Service (SCDS) ,当前飞行风险评估等级: 无高风险
轨道信息
数据来源 国际轨道数据 AOE轨道数据
星历时间 2026-09-12T10:21:32+0800
12小时前
查看轨道信息
2026-09-09T23:00:00+0800
3天前
查看轨道信息
半长轴 6861.195km 6861.189km
偏心率 0.000177 0.0001769
轨道倾角 43.005° 43.003°
近地点辐角 265.582° 255.034°
升交点赤经 148.485° 162.455°
平近点角 94.483° 167.782°
近地点 481.843km 481.838km
远地点 484.273km 484.266km
周期 94.267分钟 94.267分钟
每日圈数 15.275773 15.275792
详细信息
固有亮度:
5
最大亮度:
2.5
卫星平台:
Starlink v1.5
覆盖范围:
全球
运营商:
太空探索技术公司
运营商所在国:
美国
制造商(研发单位):
太空探索技术公司
制造商所在国:
美国
使用方式:
暂无
卫星简介
星链(Starlink)计划是由太空探索技术公司(SpaceX)提出的一个巨型低轨卫星互联网星座项目,计划在2019年至2024年间在太空搭建由约1.2万颗卫星组成的“星链”网络,其中1584颗将部署在地球上空550千米处的近地轨道,并从2020年开始工作。该卫星仍在工作。
2D轨道图
3D轨道图
轨道高度分析图
轨道倾角分析图
轨道综合分析图
查看轨道综合分析图
交会数据列表
事件ID 空间交会对象 最接近时刻(TCA) 交会距离 交会风险概率(CRP) 交会风险指数(CRI) 操作
CDM_260915-023805-485206-302021
2026-09-15T
02:38:48+0000
0.275 km
中距离
4.840409E-4 高风险 0.89
CDM_260915-010405-485206-302021
2026-09-15T
01:04:38+0000
1.860 km
极远距离
2.688495E-6 低风险 0.44
与全量物体交会距离演化趋势
与全量物体交会风险概率演化趋势